CAPE
3200 3126 2994 2818 2754 2501 2538 2606 2637 2740 2899 2656 2494 2731 2902 2977 2802 2918 2862 2928 2791 2704 3073 3342 3131 3186 3142 3267 3473 3253 3838 4051 3864 3880 3556 3375 3401 2911 2604 2866 2525 2520
3275 3207 2992 2963 3196 3274 3153 2862 2763 2826 3107 3176 2980 3015 2996 3172 3038 2781 2764 2737 2767 2654 3121 3101 3222 2967 3246 2929 3420 3490 3749 3792 3372 3233 3691 3660 3464 3110 2658 2467 2116 2367
3204 3281 3113 2989 2853 3070 2638 2782 2785 2799 2603 2707 2688 2903 3136 3199 3592 3126 2932 2710 2559 2502 3048 3296 3411 3379 3102 3174 3828 3645 3423 3609 3397 3390 3742 3737 3650 3385 3064 2341 2441 2201
2870 3081 3017 2794 2787 2782 2792 2900 3001 2692 2498 2632 2764 2613 2680 2694 3182 3553 3120 2731 3105 3370 3353 3356 3180 3131 2900 2860 3300 3434 3591 3823 3648 3759 3895 3651 3743 3408 3174 2954 2490 2185
2466 2649 2854 2860 2819 2773 2928 2965 2716 2520 2557 2521 2381 2654 3043 3123 3385 3434 3222 3118 3245 3348 3392 3628 3437 3232 3648 3082 3343 3441 3550 3856 3604 3714 3554 3435 3982 3831 3344 2839 2969 2726
2247 2552 2638 2871 2983 3100 2807 3018 2832 2722 2720 2451 2517 2376 2646 3222 3092 3126 3164 2937 2795 2839 3247 3239 3400 3448 3398 3522 3470 3641 3684 3320 3226 4227 3933 3910 3755 3635 3321 3631 3701 3289
2087 2336 2296 2511 2762 2866 2789 2775 2908 2943 2573 2412 2675 2697 2641 2799 2913 3052 3343 3215 3142 3139 2957 3006 3768 3750 3713 3953 3832 4280 3718 3817 4367 5092 4500 4240 4187 4092 3600 3651 3784 3430
1700 1885 2082 1932 2168 2574 2539 2509 2804 3057 3095 2965 2898 3063 3011 2627 2847 2814 3002 3166 3104 3190 3126 3302 3517 3926 3842 3450 3833 3924 4100 3518 3435 3680 4358 3798 4306 4421 4173 3293 3319 3563
1531 1415 1753 1600 1566 1971 2221 2123 2532 2998 3008 3061 2661 2685 2890 2814 2821 2669 3064 3369 3280 3391 3951 3732 4298 3845 3433 3915 3830 3915 3978 3403 3216 3904 4142 4144 4327 4040 3766 4035 3430 3295
1835 1410 1006 976 889 1107 1381 1794 2028 2252 2664 2793 2520 2476 2740 2876 2933 2904 3418 3691 3716 3998 4393 4106 4165 3980 4002 3894 3877 3881 3892 3993 3755 3716 3745 3678 3723 3743 3752 3944 3636 3351
1676 1323 1094 895 598 526 731 933 1107 1462 2006 1644 1972 2112 2496 2817 3052 3340 3576 4040 3468 3726 3991 4094 3966 3975 4189 3495 3705 3737 3733 3582 3744 3839 3914 3744 3474 3520 3609 3567 3614 3349
1777 1468 1074 902 744 536 471 550 479 496 855 1266 1164 1673 2279 2527 2986 3035 3331 3778 3652 3621 3804 4009 3946 4156 4122 3987 3497 3548 3420 3395 3551 3677 3476 3731 3717 3496 3403 3464 3512 3906
2360 1892 1511 1028 950 850 619 564 512 440 475 594 792 935 1577 1928 2264 2839 3102 3291 3576 3512 3404 3580 3850 3571 3802 3873 3611 3436 3386 3551 3252 3352 3398 3367 3423 2835 2403 2702 3077 3244
3077 2747 2202 1784 1325 1367 1301 1064 902 680 582 507 627 844 972 1102 1371 1774 2354 2601 2804 2903 3013 2975 3322 3563 3886 4025 3787 3353 3172 3322 3160 2911 2835 3027 3175 2862 2575 2374 2520 2420
3061 3049 2977 2628 2084 2356 2412 1995 1508 1430 1392 1407 1376 1308 974 920 1035 1130 1601 2006 2030 2172 2278 2457 2487 3022 3192 3391 3158 3265 3068 2970 2989 3078 2850 2776 2779 2623 2519 2679 2578 2267
3378 3427 3470 3805 3194 2816 2881 2730 2351 2097 1951 1940 1977 1961 1709 1668 1592 1602 1662 1802 2062 2134 2154 2112 2116 2351 2701 2904 2745 2986 3291 2905 2848 3083 3166 2959 2812 2858 2497 2384 2306 2098
3264 3052 3533 4014 4117 3709 3517 3519 3488 3150 2754 2619 2367 2436 2358 2472 2271 1947 1757 1403 1424 1496 1763 1582 1750 1954 2426 2130 1817 1315 2264 2392 2592 2808 3135 3207 2727 2601 2458 1953 1675 1671
2582 2384 2407 2589 2949 3576 4402 4013 3898 3887 3921 3613 3024 2690 2796 2560 2381 2069 2118 1697 1357 1287 1065 1237 1891 1743 1726 1515 1115 1260 1661 2780 1940 1929 1914 2102 2028 1782 1930 1698 1686 1787
1912 1901 1750 1771 2036 2491 3169 3656 3676 3745 3603 3365 3045 2980 2698 2558 2325 2194 2348 2214 1729 1887 1647 1760 1955 1521 1152 878 698 665 807 1176 2078 1591 1662 1607 1542 1945 1973 2401 2790 2607
1870 1759 2047 2118 1956 2057 2421 2780 2497 2187 2349 2016 2063 2586 2523 2546 2206 2138 2137 2380 2369 2226 2658 2026 1575 1150 1298 1128 1123 861 885 935 1960 1875 1633 1535 1655 2106 1826 1995 2532 2634
1737 1780 1750 1710 1605 1664 1683 1512 1497 1421 1433 1538 1718 1677 1938 2312 2147 2181 2049 2259 2439 2659 2122 1531 1443 1376 1288 1366 1312 1296 1099 1120 1959 1642 1174 1252 1878 2279 2911 2832 3090 2853
2163 2051 1729 1563 1480 1435 862 804 897 1026 1233 1367 1023 1031 1716 1856 2286 2159 2182 2257 2454 2354 1517 1280 1449 1486 1471 1361 1386 1410 1396 1643 2666 2574 1878 1962 2133 2616 2819 3079 2902 2798
1147 903 855 830 715 583 571 701 773 855 940 964 794 1391 1639 1923 1488 1594 1940 2024 1707 1501 1410 1318 1429 1456 1440 1403 1262 1318 1405 2292 2894 2813 2753 2512 2349 3038 2751 2358 2388 2594
627 517 596 596 628 648 679 698 675 733 817 826 846 962 980 1149 1244 1246 1042 1216 1232 1089 1338 1314 1256 1195 1177 1155 1103 1035 1139 1854 2551 2803 3032 2914 2948 3019 2671 2774 2899 2719
628 565 621 660 679 757 709 677 658 679 717 769 734 751 812 918 913 860 841 850 822 1021 1082 1070 1052 1005 972 952 987 1017 1016 1812 2185 2288 1716 2608 2640 2644 2732 2698 2030 1746
566 506 423 392 391 415 405 492 479 497 629 681 678 604 685 780 804 822 803 673 647 751 861 866 838 870 918 928 937 961 992 1015 1031 1395 1786 1708 1664 1535 1965 1957 1865 1567
Wind_Speed
7 8 7 7 7 8 8 6 6 5 6 6 5 5 5 5 5 6 6 5 5 6 6 7 8 8 8 8 8 8 9 9 9 9 8 9 9 9 10 10 9 8
6 7 8 8 8 8 8 8 7 8 8 8 9 8 8 7 6 6 6 6 5 5 6 7 7 7 7 7 7 8 8 8 6 8 8 8 8 8 7 8 9 10
6 6 6 7 7 6 6 7 8 9 9 9 8 8 8 8 7 7 7 6 6 6 6 7 8 7 7 7 7 7 7 7 6 7 8 8 8 8 8 8 8 9
6 6 6 6 8 8 8 8 8 10 10 9 9 8 8 9 9 8 7 6 6 7 7 7 8 8 7 7 7 6 8 7 7 7 8 8 7 6 6 7 7 7
5 6 7 8 9 9 10 9 8 8 8 9 8 8 8 9 8 7 7 7 6 6 7 7 8 8 8 8 7 7 8 7 8 7 7 7 7 7 6 7 8 6
7 7 8 9 10 10 9 9 9 9 7 7 7 7 6 6 6 6 7 6 6 5 6 7 7 7 7 8 8 7 7 6 9 8 7 6 6 8 7 9 7 7
10 9 7 9 9 9 9 10 11 9 8 8 8 7 6 6 5 6 6 6 6 6 6 7 8 8 7 8 7 7 6 6 7 8 7 6 7 7 7 7 7 7
11 11 10 10 9 10 9 10 11 10 10 10 9 8 7 7 6 6 6 7 6 7 7 8 8 7 6 6 6 6 5 6 6 5 6 5 6 6 7 7 8 7
12 13 13 11 10 11 10 10 10 10 11 10 10 10 9 8 8 7 8 7 7 8 8 8 8 6 6 6 6 6 6 5 6 6 6 5 6 6 6 7 7 7
13 14 13 13 12 13 12 11 11 11 11 11 11 12 11 11 10 10 10 9 8 8 8 8 8 7 6 6 6 6 6 6 6 6 6 5 5 5 7 7 7 6
13 13 14 14 14 15 14 13 12 13 14 12 12 12 12 13 13 12 12 11 10 10 9 9 9 8 7 6 7 8 7 7 7 7 7 6 6 6 7 7 7 6
15 15 15 15 16 16 16 15 15 14 14 14 13 13 13 13 14 13 14 13 12 12 11 11 11 10 9 8 9 9 9 8 8 8 8 8 8 8 8 9 9 9
19 18 18 18 18 18 18 17 16 16 15 14 15 14 14 14 14 14 15 14 14 13 13 13 12 11 11 11 10 10 10 10 9 9 10 10 10 10 10 10 11 11
23 22 21 21 21 21 19 19 19 18 18 17 16 15 15 14 14 15 16 15 15 14 14 14 13 13 13 12 11 11 11 11 10 10 10 11 11 11 11 12 12 12
25 26 25 24 22 23 22 21 19 19 19 19 19 18 18 17 17 17 17 17 17 16 15 15 14 14 14 13 12 13 13 12 12 11 11 11 11 11 12 12 12 12
25 28 29 27 26 25 24 23 21 20 20 20 20 20 20 21 21 21 20 20 20 19 18 16 16 15 18 23 22 18 16 15 15 14 13 13 13 12 12 12 12 12
26 27 28 28 27 27 27 27 26 24 23 23 23 23 22 24 23 22 21 21 20 20 18 18 18 28 32 27 21 18 16 16 15 15 15 15 14 14 13 13 13 14
28 27 25 25 25 27 29 31 31 30 29 28 26 25 25 24 24 23 23 22 23 21 21 19 28 34 32 31 25 20 17 17 16 16 16 17 16 16 16 15 15 15
30 28 27 27 27 27 29 33 34 34 32 30 30 30 29 26 26 26 25 24 23 25 23 27 31 37 33 31 29 26 21 18 18 17 18 18 18 18 18 19 19 18
35 34 34 36 37 34 33 35 39 39 39 38 35 33 31 29 27 28 27 26 26 26 29 32 33 35 32 30 29 27 25 20 19 18 19 19 20 20 19 20 20 20
35 34 33 35 38 38 40 43 45 43 41 38 36 35 31 29 28 30 30 29 30 30 28 33 35 38 34 33 31 27 27 22 20 20 20 21 22 22 23 22 22 20
36 37 36 34 35 38 41 42 43 43 41 37 39 40 37 36 34 33 34 33 33 31 32 34 38 39 36 35 32 30 27 22 22 22 22 22 24 25 25 25 24 23
42 41 40 38 38 38 39 39 41 44 44 42 42 43 44 44 39 36 37 38 39 37 35 36 39 40 38 38 35 32 25 23 23 24 24 23 24 27 26 26 27 29
41 42 42 41 39 39 39 39 40 39 38 39 45 50 52 50 46 44 42 40 41 39 37 40 42 43 43 41 39 37 31 25 26 25 26 26 26 26 28 30 37 41
35 34 36 37 36 36 36 34 33 36 39 39 43 49 54 51 47 46 47 43 43 43 43 43 44 45 45 44 43 42 36 31 31 30 26 29 29 30 33 31 35 41
37 35 35 36 37 36 33 30 28 30 32 32 31 35 45 49 48 45 47 44 44 43 43 44 45 45 46 46 46 45 42 36 36 33 34 34 34 33 31 32 35 36
Wind_Direction
176 176 181 193 199 195 196 201 192 190 182 182 187 188 179 185 180 178 174 182 183 178 187 180 181 179 185 189 195 192 196 200 193 219 213 209 210 210 213 224 219 222
180 179 183 186 196 201 201 197 203 194 204 195 189 198 197 197 199 192 191 185 190 194 197 200 198 197 196 204 216 213 217 220 216 228 236 232 224 225 229 233 229 230
188 192 189 182 186 193 191 206 202 201 202 202 206 197 204 206 199 207 204 200 198 208 219 208 215 215 217 220 226 229 238 236 230 235 244 246 239 242 232 229 240 245
195 191 194 189 187 196 190 198 209 199 194 208 199 208 200 208 211 216 217 217 213 213 218 226 225 232 239 241 244 241 248 249 251 243 249 250 252 245 248 250 245 246
212 204 197 198 199 199 201 202 198 212 195 202 204 211 209 205 208 218 226 236 225 227 235 236 246 244 247 251 257 250 254 261 269 270 263 261 261 264 254 256 251 249
226 213 210 208 212 210 206 212 206 205 201 211 196 210 216 224 209 217 230 235 243 236 244 253 258 256 260 265 264 259 259 258 268 274 271 265 258 262 257 259 261 260
234 228 220 221 220 223 207 213 215 208 209 201 217 202 216 231 230 228 232 228 224 234 241 248 248 251 255 262 268 272 268 259 256 272 271 268 273 270 270 268 266 259
231 231 227 224 226 230 219 219 216 219 216 211 213 215 213 226 236 237 236 233 227 233 230 240 249 245 247 259 265 272 272 278 288 286 284 278 269 277 278 273 275 274
232 232 230 230 230 231 230 228 229 220 222 219 213 223 223 213 232 226 237 235 225 236 238 237 243 243 244 247 255 263 263 252 259 276 282 283 291 291 288 286 290 287
239 231 233 235 235 232 231 227 229 230 228 221 219 217 229 224 221 225 239 235 232 238 241 237 246 244 244 257 258 256 258 263 259 260 264 274 277 277 283 287 291 290
246 244 239 236 237 237 239 234 228 225 231 226 226 222 226 232 231 226 234 238 233 240 240 239 244 246 244 245 255 258 261 262 267 274 275 274 271 270 269 272 274 276
245 246 247 247 242 240 242 240 237 231 224 230 226 228 231 231 237 234 235 237 231 235 237 237 236 236 240 236 245 257 261 258 266 268 272 273 272 277 276 275 274 275
246 242 242 246 248 243 241 243 242 242 237 230 232 230 234 234 240 241 239 238 238 234 235 239 237 236 236 238 237 242 251 256 257 266 267 267 272 269 270 274 274 274
254 247 242 241 243 245 241 239 240 242 242 238 234 238 235 236 236 244 245 242 240 238 237 237 242 239 243 241 241 242 250 257 254 254 260 266 267 268 267 268 272 275
258 254 248 244 243 245 244 240 239 239 240 239 239 235 236 236 237 235 239 243 243 241 237 237 242 247 246 252 252 251 244 249 254 255 258 260 261 265 271 271 273 274
256 255 253 249 246 246 248 248 245 243 243 245 243 241 236 233 232 235 235 241 243 244 242 239 240 244 252 242 229 237 250 251 257 259 256 256 260 263 268 276 280 277
253 255 256 254 251 249 249 248 245 242 242 243 243 241 239 241 239 238 238 239 244 247 250 248 244 237 229 247 252 243 241 254 259 266 271 273 275 275 272 271 273 277
253 256 258 259 256 253 251 249 246 244 241 240 239 243 245 243 244 242 240 238 243 245 246 248 248 236 234 232 230 241 245 246 257 264 270 273 274 272 270 268 267 268
255 254 254 254 254 252 249 248 248 246 243 242 242 239 240 244 245 246 247 245 242 244 243 245 245 236 232 233 234 236 243 243 248 254 258 263 265 268 267 264 262 260
257 257 253 251 249 250 251 248 247 243 242 241 239 242 241 243 248 250 248 246 245 245 247 245 243 233 230 233 236 237 242 252 250 252 257 256 257 259 260 265 267 264
261 261 261 260 258 259 259 257 256 251 248 248 251 250 249 248 245 248 247 247 248 250 250 247 244 232 231 231 233 235 240 246 249 250 256 262 265 263 260 256 258 262
255 256 258 259 259 257 261 262 259 254 251 245 243 239 240 246 244 243 247 245 246 249 248 246 244 234 233 234 233 234 237 251 254 253 254 257 261 261 260 261 261 260
253 256 258 260 259 258 257 256 256 253 251 249 251 248 246 244 243 242 242 244 246 246 247 244 243 234 233 235 234 234 240 252 254 254 256 257 260 261 262 263 261 258
255 254 255 256 253 253 255 253 251 251 252 251 254 251 247 246 244 242 240 244 246 247 246 245 242 236 232 233 233 232 235 245 252 255 256 256 257 261 260 259 258 254
258 259 256 252 250 250 252 253 255 257 252 250 251 249 247 243 241 243 243 240 242 245 245 244 242 238 232 231 232 232 234 245 250 251 252 256 254 254 255 257 264 258
250 253 252 248 247 245 246 247 251 252 250 250 252 250 247 243 242 244 247 244 245 243 242 240 241 239 234 231 232 233 232 242 250 252 256 254 254 253 256 259 262 266